Regional Weather Roundup
Issued by NWS

Home | Current Version | Previous Version | Graphics & Text | Print | Product List | Glossary On
Versions: 1 2 3 4 5 6 7 8 9 10 11 12 13 14 15 16 17 18 19 20 21 22 23 24 25 26 27 28 29 30 31 32 33 34 35 36 37 38 39 40 41 42 43 44 45 46 47 48 49 50
000
ASUS43 KLSX 301507
RWRMO

WEATHER SUMMARY FOR MISSOURI
NATIONAL WEATHER SERVICE SPRINGFIELD MO
900 AM CST FRI JAN 30 2015

NOTE: "FAIR" INDICATES FEW OR NO CLOUDS BELOW 12,000 FEET WITH NO
       SIGNIFICANT WEATHER AND/OR OBSTRUCTIONS TO VISIBILITY.
       CURRENT SKY AND/OR WEATHER CONDITIONS ARE NOT AVAILABLE FOR
       CHILLICOTHE AND FARMINGTON.

MOZ001>031-035>038-043-044-053-054-301600-
...NORTHERN AND WESTERN MISSOURI...

CITY           SKY/WX    TMP DP  RH WIND       PRES   REMARKS
KANSAS CTY INT PTSUNNY   25  21  85 NE7       30.54R WCI  17
KANSAS C DTWN  SUNNY     27  21  78 E7        30.56R WCI  19
LEE`S SUMMIT   SUNNY     26  21  81 E8        30.54R WCI  18
ST JOSEPH      MOSUNNY   23  20  88 CALM      30.57R
CHILLICOTHE      N/A     25  18  74 NE7       30.58R WCI  17
KIRKSVILLE     SUNNY     23  18  81 NE6       30.55R WCI  16

$$
MOZ066>068-077>081-088>096-101>105-301600-
...SOUTHWEST MISSOURI...

CITY           SKY/WX    TMP DP  RH WIND       PRES   REMARKS
SPRINGFIELD    MOSUNNY   28  23  81 NE8       30.51R WCI  20
JOPLIN         MOSUNNY   28  24  85 NE3       30.54S

$$
MOZ032>034-039>042-045>050-055>058-069>072-301600-
...CENTRAL MISSOURI...

CITY           SKY/WX    TMP DP  RH WIND       PRES   REMARKS
COLUMBIA       SUNNY     26  20  77 E7        30.55R WCI  18
JEFFERSON CITY SUNNY     28  21  75 CALM      30.57R
ROLLA          PTSUNNY   26  20  77 NE6       30.51R WCI  19
SEDALIA        SUNNY     27  21  78 NE7       30.56R WCI  19
WHITEMAN AFB   SUNNY     26  21  80 NE7       30.54S WCI  19
WARRENSBURG    SUNNY     27  23  86 NE6       30.55F WCI  20
OSAGE BEACH    SUNNY     27  19  74 N7        30.55R WCI  19

$$
MOZ051-052-059>065-301600-
...EAST CENTRAL MISSOURI...

CITY           SKY/WX    TMP DP  RH WIND       PRES   REMARKS
ST LOUIS INTL  MOSUNNY   30  17  58 N10       30.56R WCI  21
SPIRIT OF STL  MOSUNNY   29  18  63 NE6       30.56R WCI  23
ST CHARLES     SUNNY     30  18  60 N10       30.57R WCI  21

$$
MOZ072>076-082>087-097>100-106>115-301600-
...SOUTH CENTRAL AND SOUTHEAST MISSOURI...

CITY           SKY/WX    TMP DP  RH WIND       PRES   REMARKS
CAPE GIRARDEAU SUNNY     34  23  64 N17       30.54R WCI  23
FARMINGTON     CLOUDY    28  21  74 N9        30.55R WCI  20
POPLAR BLUFF   SUNNY     34  23  64 N13       30.54R WCI  25
WEST PLAINS    SUNNY     30  23  75 N9        30.50R WCI  22

$$


USA.gov is the U.S. government's official web portal to all federal, state and local government web resources and services.